ソーホー彗星

P/2012 A3 ( SOHO )

English version
Home page
Updated on March 21, 2016

---------------------------------------------------------------------

・ プロフィール

再発見日 2012年1月13日
再発見光度 6等
再発見者 Alan Watson (STEREO-B spacecraft)

・ 写真集

・ 軌道要素

Epoch 2012 Feb. 3.0 TT = JDT 2455960.5
T 2012 Jan. 26.44903 TT                                 MPCW
q   0.5748034            (2000.0)            P               Q
n   0.23941311     Peri.  217.66476     +0.82697434     -0.56210615
a   2.5686451      Node   176.46933     +0.55199873     +0.80757846
e   0.7762231      Incl.   11.47549     +0.10682149     +0.17847606
P   4.12
From 333 observations 2012 Jan. 13-2016 Feb. 22, mean residual 4".8.

・ 星図

・ 光度変化

        m1 = 20.5 + 5 logΔ + 25.0 log r

---------------------------------------------------------------------

軌道要素はM.P.E.C. 2016-E131に掲載されたものです。
星図はステラナビゲータ Ver.8 (アストロアーツ) で作成したものです。
光度グラフはComet for Windowsで作成したものです。

---------------------------------------------------------------------

Copyright(C) Seiichi Yoshida (comet@aerith.net). All rights reserved.